This is the latest recevied weather packets stored in our database for station/object KF5JED-13. If no packets are shown the sender has not sent any weather packets the latest 10 day(s).
| Time | Temp. | Humidity | Pressure | Rain* | Wind** | Luminosity | Snow |
|---|---|---|---|---|---|---|---|
| 1778269586 | 27.78° C | 26% | 1011.3 hPa | 0 mm | - | 851 W/m² | - |
| 1778269283 | 27.78° C | 24% | 1011.2 hPa | 0 mm | - | 858 W/m² | - |
| 1778268980 | 28.33° C | 25% | 1011.1 hPa | 0 mm | - | 865 W/m² | - |
| 1778268676 | 27.22° C | 26% | 1011.3 hPa | 0 mm | - | 870 W/m² | - |
| 1778268373 | 27.22° C | 25% | 1011.3 hPa | 0 mm | - | 873 W/m² | - |
| 1778268070 | 27.78° C | 24% | 1011.3 hPa | 0 mm | - | 873 W/m² | - |
| 1778267767 | 28.33° C | 25% | 1011.1 hPa | 0 mm | - | 876 W/m² | - |
| 1778267464 | 27.22° C | 24% | 1011.2 hPa | 0 mm | - | 880 W/m² | - |
| 1778267161 | 27.22° C | 25% | 1011.2 hPa | 0 mm | - | 882 W/m² | - |
| 1778266857 | 27.22° C | 25% | 1011.5 hPa | 0 mm | - | 886 W/m² | - |
| 1778266555 | 27.22° C | 25% | 1011.2 hPa | 0 mm | - | 887 W/m² | - |
| 1778266252 | 27.22° C | 25% | 1011.3 hPa | 0 mm | - | 892 W/m² | - |
| 1778265949 | 27.22° C | 25% | 1011.1 hPa | 0 mm | - | 892 W/m² | - |
| 1778265646 | 27.78° C | 24% | 1011.2 hPa | 0 mm | - | 891 W/m² | - |
| 1778265343 | 27.22° C | 24% | 1011.3 hPa | 0 mm | - | 888 W/m² | - |
| 1778265038 | 26.67° C | 24% | 1011.3 hPa | 0 mm | - | 886 W/m² | - |
| 1778264734 | 27.22° C | 25% | 1011.3 hPa | 0 mm | - | 886 W/m² | - |
| 1778264426 | 27.22° C | 25% | 1011.5 hPa | 0 mm | - | 885 W/m² | - |
| 1778264121 | 26.67° C | 25% | 1011.2 hPa | 0 mm | - | 881 W/m² | - |
| 1778263819 | 26.67° C | 26% | 1011.8 hPa | 0 mm | - | 879 W/m² | - |
| 1778263515 | 26.11° C | 26% | 1011.8 hPa | 0 mm | - | 877 W/m² | - |
| 1778263212 | 26.11° C | 26% | 1011.7 hPa | 0 mm | - | 869 W/m² | - |
| 1778262908 | 25.56° C | 28% | 1011.7 hPa | 0 mm | - | 868 W/m² | - |
| 1778262606 | 25.56° C | 27% | 1011.8 hPa | 0 mm | - | 861 W/m² | - |
| 1778262303 | 26.11° C | 27% | 1011.7 hPa | 0 mm | - | 859 W/m² | - |
* Rain latest hour (hover to see other rain measurements)
** Current wind speed in m/s (hover to see current wind gust speed)